Temperature
11 10 10 11 11 12 12 12 12 12 13 12 11 11 12 13 12 12 12 12 12 11 11 10 10 9 9 9 9 9 9 9 9 8 8 8 8 8 8 8 8 8 8 8
10 9 11 12 12 12 12 11 11 12 12 12 11 11 12 12 12 12 12 12 11 11 10 10 9 9 9 9 9 9 9 8 8 8 8 8 8 8 7 7 7 7 7 7
10 11 11 11 11 11 11 11 11 11 11 11 10 10 11 12 12 12 12 12 11 11 10 9 9 9 8 8 8 8 8 8 8 8 8 7 7 7 7 7 7 7 7 7
10 11 11 11 10 11 10 11 11 10 9 9 10 8 11 12 11 11 11 11 11 10 10 9 9 8 8 8 8 8 8 8 8 8 7 7 7 7 7 7 7 7 7 7
9 10 10 10 10 10 10 11 10 9 9 8 9 8 9 11 11 11 10 11 11 10 9 9 8 8 8 8 7 7 7 7 7 7 7 7 7 6 6 6 6 6 6 6
9 10 10 10 10 10 10 10 9 9 8 7 8 8 9 11 11 11 11 10 10 10 9 9 8 8 7 7 7 7 7 6 7 7 7 6 6 6 6 6 6 6 6 6
8 9 9 9 8 9 9 8 7 7 6 7 10 9 9 12 11 11 10 10 10 10 9 8 8 7 7 7 7 7 6 6 6 6 6 6 6 6 6 5 5 5 5 5
7 8 8 8 8 7 8 8 7 7 8 8 9 8 10 11 11 11 10 10 10 9 8 8 7 7 7 6 6 6 6 6 6 6 6 6 6 5 5 5 5 5 5 5
7 7 8 8 8 8 8 7 8 7 7 7 8 10 11 10 9 9 9 9 9 8 8 7 7 6 6 6 6 6 6 6 6 6 6 5 5 5 5 5 4 4 4 4
7 6 7 7 7 7 7 8 7 7 7 8 9 10 9 9 9 9 8 8 8 8 7 7 7 6 6 6 6 5 6 5 5 5 5 5 5 5 5 4 4 4 4 4
7 5 6 6 6 6 6 6 6 6 7 7 8 9 10 9 9 8 8 8 8 8 7 7 6 6 6 5 5 5 5 5 5 5 5 5 5 4 4 4 4 4 4 3
6 5 5 6 7 7 7 7 6 6 6 7 7 7 10 9 9 9 8 8 8 7 7 6 6 6 5 5 5 5 5 5 4 4 4 4 4 4 4 4 4 4 3 3
5 4 4 5 5 5 5 6 6 6 5 5 6 7 9 9 8 9 8 8 7 7 6 6 6 5 5 5 5 5 5 4 4 4 4 4 4 4 4 3 3 3 3 3
6 4 4 5 5 4 4 5 5 5 4 5 6 7 8 8 8 7 8 8 7 6 6 6 5 5 5 5 4 4 4 4 4 4 4 3 3 3 3 3 3 3 3 3
4 3 4 4 5 5 5 5 5 4 5 5 6 6 7 7 7 7 8 7 7 6 6 6 5 5 5 4 4 4 4 3 3 3 3 3 3 3 3 3 3 3 2 2
3 3 3 3 4 5 4 5 5 5 5 5 6 6 7 8 8 7 7 7 7 6 6 5 5 4 4 4 4 4 3 3 3 3 3 2 2 2 2 2 2 2 2 2
2 2 3 3 4 4 3 4 4 4 5 5 5 6 6 6 6 6 7 7 6 6 5 5 4 4 4 4 4 3 3 3 2 2 2 2 2 2 2 2 2 2 2 2
2 2 2 2 3 2 5 6 6 5 5 5 5 5 5 5 6 6 6 6 6 5 5 4 4 4 3 3 3 3 2 2 2 2 2 1 1 1 1 1 1 1 1 1
3 2 2 2 2 4 5 5 5 4 4 5 5 5 5 5 5 5 6 5 5 4 4 4 3 3 3 3 2 2 2 2 2 2 1 1 1 1 1 1 1 1 1 1
2 1 1 2 2 3 5 5 5 5 4 5 5 4 4 4 3 3 5 4 4 4 3 3 3 3 2 2 2 2 1 1 1 1 1 1 1 1 1 0 0 0 0 0
1 1 1 1 2 3 4 4 4 4 4 5 5 5 4 3 4 4 4 4 3 3 3 3 2 2 2 2 1 1 1 1 1 1 1 0 0 0 0 -0 -0 -0 -0 -0
1 1 1 1 2 3 3 3 3 4 5 5 5 5 4 4 4 3 3 3 2 2 2 2 2 2 1 1 1 1 1 1 0 0 0 -0 -0 -0 -0 -1 -1 -1 -1 -1
2 2 2 2 3 4 4 4 5 5 4 4 4 4 4 3 3 2 2 2 2 2 2 2 1 1 1 1 1 0 0 0 -0 -0 -0 -1 -1 -1 -1 -1 -1 -1 -2 -2
2 3 2 2 2 3 4 4 4 4 4 4 3 3 3 2 2 2 2 2 2 2 1 1 1 1 1 0 0 -0 -0 -0 -0 -1 -1 -1 -1 -1 -1 -1 -1 -2 -2 -2
2 1 1 1 2 2 3 4 3 3 3 3 3 2 2 2 1 1 1 1 1 1 1 1 1 0 0 -0 -0 -0 -1 -1 -1 -1 -1 -1 -2 -2 -2 -2 -2 -2 -2 -2
2 1 1 1 2 2 2 3 3 3 2 2 2 2 1 1 1 1 1 1 1 0 0 0 0 -0 -0 -1 -1 -1 -1 -1 -1 -1 -2 -2 -2 -2 -2 -2 -2 -2 -2 -2
Wind_Speed
6 5 8 9 10 9 7 7 8 6 3 4 8 11 10 8 8 9 8 7 6 5 5 5 5 5 5 5 5 5 4 4 3 3 3 3 2 2 1 1 3 3 2 1
5 9 9 6 7 9 9 9 8 5 3 5 8 12 10 10 10 9 8 7 6 5 5 5 5 5 5 5 4 5 5 4 4 3 3 2 2 2 2 1 2 3 3 2
9 4 5 7 8 9 10 9 8 5 4 6 6 9 10 8 9 8 8 7 6 6 6 6 5 5 5 4 5 4 5 4 4 4 2 2 2 1 1 1 1 1 2 3
7 7 6 7 8 8 8 5 5 3 4 4 4 5 7 7 8 8 7 6 7 6 5 5 5 5 5 5 4 4 5 4 4 4 4 4 3 2 3 2 2 2 2 2
5 5 6 8 8 7 4 1 3 4 5 5 6 6 7 7 7 8 8 7 7 6 6 6 6 5 4 4 4 4 4 4 4 4 4 4 3 3 2 2 2 2 2 2
7 4 3 4 3 4 1 0 2 3 2 6 8 8 6 6 8 7 8 7 7 6 6 6 6 5 4 4 4 3 4 4 4 4 4 4 4 3 3 2 3 2 1 1
6 6 4 2 3 4 4 3 1 2 4 7 5 6 7 4 5 5 6 6 6 6 6 5 6 6 5 5 4 4 4 3 4 4 4 4 4 4 4 3 3 3 2 2
4 5 7 5 5 5 7 6 4 4 4 3 3 7 5 3 5 5 5 5 5 6 5 5 5 5 5 5 5 4 4 3 3 4 4 4 4 3 3 3 3 3 3 3
4 3 2 4 2 2 4 6 2 2 3 3 5 5 3 4 4 4 5 5 5 5 4 4 4 5 5 5 5 5 4 3 4 4 4 4 4 4 4 3 3 3 3 3
2 2 3 2 2 4 3 2 2 3 3 4 6 6 4 5 5 4 5 5 4 4 4 4 4 4 4 4 4 4 4 4 4 4 3 3 4 4 4 3 3 3 3 3
2 2 2 4 7 7 5 4 4 4 4 3 4 3 0 4 5 5 5 4 4 4 4 4 3 4 3 3 4 4 4 3 3 4 3 3 4 4 4 3 4 3 3 3
2 2 4 5 3 2 5 6 6 4 5 4 3 5 1 3 3 5 5 4 3 3 3 3 3 3 3 3 3 3 3 3 3 3 3 3 3 3 4 4 4 3 3 3
2 2 2 2 2 2 3 5 5 4 2 4 5 5 1 2 2 3 4 3 3 3 3 3 3 3 3 3 3 3 3 3 3 2 2 2 2 3 3 4 4 4 4 4
2 4 6 7 4 2 5 7 7 5 5 6 9 8 6 3 2 1 1 2 3 4 4 4 3 3 3 3 3 3 2 2 2 2 2 2 2 3 3 3 3 3 4 4
2 4 6 8 8 7 8 9 10 11 10 9 9 10 10 6 5 4 3 3 4 4 4 4 4 3 3 3 3 3 2 2 2 2 3 3 2 2 2 2 3 3 3 4
2 3 3 7 7 8 11 12 13 14 12 14 13 14 9 6 4 4 4 4 4 4 4 4 4 3 4 4 4 3 3 3 2 3 3 2 2 2 2 3 3 3 3 3
4 3 3 6 4 5 10 12 13 11 11 11 14 12 5 4 5 4 4 4 4 3 3 3 4 4 3 3 4 4 4 3 3 3 2 2 2 2 3 3 3 3 3 3
5 4 3 3 2 8 8 3 7 10 11 11 9 7 6 5 4 4 3 3 3 3 3 3 3 3 3 2 2 3 3 3 3 3 2 2 2 2 2 3 3 3 3 3
5 5 3 3 5 8 6 3 4 6 8 8 9 8 6 3 3 4 2 2 3 2 2 2 2 3 2 3 3 3 3 3 3 3 3 3 3 3 3 3 3 3 2 3
3 3 4 4 4 6 4 2 1 2 6 4 6 7 5 2 3 4 1 2 1 1 1 2 1 2 2 3 4 4 4 4 4 4 3 3 3 3 3 3 3 3 3 3
4 5 7 7 7 7 4 2 3 3 5 2 4 5 4 5 5 2 1 1 1 1 1 2 2 3 3 3 4 4 4 5 4 3 2 3 3 3 3 3 2 2 3 3
7 6 7 6 7 8 4 4 5 5 2 2 2 2 2 3 2 1 1 1 1 1 2 2 2 3 3 3 4 4 5 4 3 2 3 3 3 3 2 2 2 2 3 3
7 7 5 7 7 4 4 4 4 3 3 3 2 2 1 2 2 2 2 2 2 2 2 2 3 2 2 3 4 5 4 3 3 3 3 3 2 2 3 3 3 3 3 3
5 4 4 6 8 6 5 4 4 4 4 3 2 2 2 3 3 3 3 2 2 2 2 2 3 3 3 3 4 4 3 3 3 3 3 2 2 2 3 3 3 3 3 3
6 5 5 8 7 5 6 6 5 5 4 4 3 3 4 4 5 4 4 3 3 2 2 2 3 3 4 3 3 3 4 4 3 3 3 2 2 3 3 3 3 4 4 5
6 6 6 8 6 5 7 5 4 5 5 4 4 4 4 4 5 5 4 3 3 3 2 2 3 3 3 3 3 3 4 4 4 3 3 3 2 2 2 2 3 4 5 5
Wind_Direction
197 211 218 219 220 241 263 263 261 266 247 228 246 257 253 243 235 232 226 215 205 202 181 171 171 169 166 163 165 172 168 167 157 162 168 169 178 172 153 151 156 165 164 185
213 230 235 238 237 245 251 259 261 267 248 254 260 265 261 244 232 222 215 213 207 188 178 173 169 165 165 165 169 172 166 171 173 174 176 178 170 179 170 155 166 177 174 180
223 238 223 232 237 238 243 244 251 262 291 257 261 271 244 236 221 216 213 202 193 186 185 176 170 169 162 167 171 177 173 174 174 165 162 156 138 128 139 161 176 191 184 180
242 240 242 230 233 236 246 252 256 257 270 260 230 273 249 228 212 207 204 191 187 180 181 172 168 169 168 171 168 174 173 173 171 164 169 168 174 188 200 188 185 177 175 181
242 222 224 233 235 234 244 263 252 242 251 270 241 250 265 214 211 207 195 188 182 176 176 171 168 165 159 157 161 167 168 173 171 174 178 182 189 195 178 161 165 178 175 178
261 268 238 245 244 227 204 202 241 233 241 255 222 218 263 211 207 199 188 181 177 173 166 158 154 149 152 152 157 165 169 175 174 178 183 188 191 184 169 174 185 186 181 190
249 232 220 191 191 195 201 165 197 211 217 240 199 214 247 210 173 165 166 165 164 157 149 151 155 160 163 162 165 175 177 179 180 179 186 192 190 187 188 189 192 190 188 201
237 239 190 194 208 195 206 202 201 217 230 252 210 227 239 140 117 112 125 143 144 144 149 161 168 167 168 167 169 174 179 184 187 192 195 192 189 190 196 197 196 199 205 206
234 239 150 187 220 198 197 219 239 268 283 271 238 234 215 128 130 138 145 145 149 154 155 158 163 161 166 169 173 174 177 183 187 198 200 191 188 193 199 203 198 200 205 207
265 255 205 188 211 241 242 219 157 196 224 249 248 229 220 177 181 174 163 158 154 154 152 155 159 160 162 163 167 169 177 185 187 192 200 196 190 193 199 198 201 202 203 200
262 217 201 191 204 206 194 198 210 223 232 228 257 254 61 162 170 172 168 158 158 160 162 162 160 160 156 153 159 166 174 183 189 192 200 199 199 195 194 200 207 205 204 200
227 210 232 228 223 257 219 208 192 204 236 225 249 265 15 101 146 158 153 143 139 144 152 154 159 158 156 166 175 177 178 182 189 189 197 202 203 195 195 203 209 208 210 210
195 191 227 240 226 249 250 232 227 235 250 233 233 253 133 101 99 134 143 152 155 160 161 159 161 171 175 184 188 184 177 178 178 177 191 205 210 204 207 210 209 210 217 214
248 219 222 232 245 209 235 230 220 214 230 246 239 251 265 264 273 257 194 189 182 185 184 182 188 193 190 193 196 187 178 167 166 172 190 206 217 217 221 222 217 219 222 223
216 237 244 263 273 265 252 238 222 223 229 239 254 257 259 248 250 250 236 212 202 205 201 196 199 199 197 203 204 186 180 179 173 185 201 215 220 227 232 242 240 237 238 237
226 243 266 273 264 262 264 249 237 236 237 245 259 266 257 255 256 259 252 240 231 226 211 205 203 202 203 205 202 189 187 187 178 193 211 215 218 237 241 244 246 242 246 246
200 203 232 261 262 289 263 235 225 229 226 227 243 250 264 273 264 254 249 239 230 233 228 217 215 212 212 208 197 193 189 177 178 188 201 208 214 230 239 242 244 240 239 242
199 204 222 254 258 246 245 205 205 222 237 234 244 255 255 254 262 262 252 230 240 228 227 223 207 202 206 194 180 175 159 168 181 188 201 208 215 230 238 242 245 252 242 238
206 197 213 222 246 266 264 235 194 210 252 232 237 252 259 275 299 278 257 193 198 204 205 210 202 194 197 190 178 163 168 180 190 203 211 212 213 227 237 247 252 257 252 248
214 202 216 228 242 251 252 190 176 173 259 229 218 238 239 209 254 257 172 128 149 159 188 213 208 186 195 198 170 170 189 192 207 215 215 215 217 222 231 245 257 261 259 256
191 210 219 231 244 262 243 176 109 193 252 252 220 230 221 220 225 214 141 169 190 215 219 216 204 196 205 194 170 186 199 208 210 205 211 220 224 227 232 244 253 261 263 261
190 196 207 209 229 248 191 153 194 231 285 308 276 258 231 225 225 213 234 239 225 237 239 217 201 209 204 178 174 200 213 204 184 193 212 224 226 226 223 230 248 246 249 254
207 202 199 208 226 248 194 217 246 292 292 304 312 307 225 223 234 235 250 246 233 226 230 212 197 204 199 181 181 209 214 177 178 196 214 223 227 228 219 219 231 240 243 248
229 216 227 250 256 259 250 255 269 271 267 282 275 264 244 232 230 237 242 239 237 241 233 213 192 205 221 200 196 208 194 176 183 204 218 215 223 235 231 228 225 233 239 245
227 197 227 254 268 281 262 255 260 269 267 263 261 248 241 237 241 241 245 244 237 240 234 208 200 215 226 208 203 196 185 181 194 209 217 220 226 234 236 238 237 238 239 241
221 209 215 243 246 241 262 262 261 261 264 258 249 252 243 235 241 241 241 238 230 230 221 210 210 216 227 211 208 200 188 188 195 211 216 221 223 231 234 245 275 266 253 261
Height
1468 1470 1469 1467 1466 1465 1463 1464 1465 1463 1463 1466 1467 1465 1462 1460 1461 1461 1462 1463 1464 1465 1467 1468 1469 1471 1472 1474 1475 1476 1477 1479 1480 1481 1482 1483 1485 1486 1487 1489 1490 1491 1491 1492
1466 1467 1463 1462 1462 1463 1463 1465 1464 1464 1462 1464 1464 1461 1457 1455 1454 1455 1457 1458 1460 1462 1463 1464 1466 1467 1469 1470 1471 1472 1474 1475 1476 1478 1479 1481 1482 1483 1484 1486 1486 1487 1488 1489
1462 1460 1459 1460 1462 1463 1462 1464 1463 1465 1464 1463 1465 1461 1453 1448 1448 1450 1452 1454 1456 1457 1459 1461 1462 1463 1465 1466 1467 1469 1470 1472 1473 1475 1477 1478 1479 1480 1481 1482 1483 1484 1485 1486
1458 1457 1458 1459 1460 1460 1463 1459 1460 1464 1469 1469 1464 1469 1450 1445 1445 1446 1447 1449 1452 1454 1456 1457 1458 1460 1461 1463 1464 1466 1467 1469 1470 1472 1473 1474 1474 1475 1477 1478 1479 1480 1481 1482
1456 1455 1457 1457 1457 1458 1459 1459 1461 1464 1467 1470 1465 1468 1452 1441 1442 1442 1443 1445 1448 1450 1452 1454 1455 1456 1458 1460 1461 1463 1464 1465 1467 1468 1470 1471 1472 1473 1474 1475 1476 1477 1478 1479
1455 1454 1455 1455 1456 1457 1459 1461 1462 1464 1468 1473 1459 1462 1451 1439 1437 1436 1439 1441 1444 1447 1449 1451 1453 1454 1456 1457 1458 1460 1461 1462 1464 1465 1466 1468 1469 1470 1471 1471 1472 1473 1474 1475
1454 1453 1453 1454 1457 1459 1460 1465 1471 1472 1474 1464 1448 1451 1444 1430 1430 1431 1435 1438 1441 1444 1447 1449 1450 1452 1453 1454 1456 1457 1458 1459 1461 1462 1463 1464 1466 1467 1467 1468 1469 1469 1470 1471
1456 1454 1451 1452 1455 1457 1459 1459 1467 1468 1463 1454 1449 1449 1437 1429 1428 1430 1433 1436 1439 1442 1444 1446 1448 1450 1451 1452 1453 1454 1455 1456 1458 1459 1460 1461 1462 1464 1464 1465 1466 1466 1466 1467
1454 1452 1450 1451 1452 1454 1456 1458 1455 1460 1459 1458 1448 1437 1430 1430 1430 1431 1433 1436 1438 1441 1443 1445 1447 1448 1449 1450 1451 1452 1453 1454 1455 1456 1457 1458 1459 1460 1461 1462 1463 1463 1463 1464
1451 1455 1451 1452 1453 1453 1454 1453 1458 1461 1461 1455 1441 1435 1435 1431 1432 1432 1433 1435 1437 1439 1441 1443 1445 1446 1447 1448 1449 1450 1450 1451 1452 1453 1454 1455 1456 1457 1458 1458 1459 1459 1460 1460
1450 1455 1454 1452 1452 1451 1453 1455 1455 1455 1454 1454 1449 1439 1425 1426 1428 1430 1432 1433 1436 1437 1439 1441 1442 1444 1445 1446 1446 1447 1448 1448 1449 1450 1451 1452 1452 1453 1454 1455 1455 1456 1456 1457
1450 1453 1454 1449 1446 1446 1446 1448 1452 1458 1454 1449 1449 1443 1425 1425 1425 1428 1430 1432 1434 1436 1438 1439 1440 1441 1442 1443 1444 1444 1445 1445 1446 1447 1448 1448 1449 1450 1450 1451 1451 1452 1452 1452
1450 1453 1455 1451 1452 1450 1449 1447 1448 1451 1453 1450 1449 1440 1426 1425 1426 1427 1429 1431 1433 1434 1436 1437 1438 1438 1439 1440 1441 1441 1442 1442 1443 1444 1444 1445 1445 1446 1446 1447 1447 1448 1448 1448
1448 1451 1452 1448 1444 1446 1448 1446 1447 1451 1453 1447 1439 1433 1428 1427 1427 1428 1429 1430 1431 1432 1433 1434 1435 1436 1436 1437 1438 1438 1439 1439 1440 1440 1441 1441 1441 1442 1442 1443 1443 1444 1444 1444
1447 1449 1446 1443 1440 1441 1441 1441 1442 1445 1443 1443 1433 1430 1425 1425 1426 1426 1427 1428 1429 1430 1430 1431 1432 1433 1433 1434 1434 1435 1435 1436 1436 1437 1437 1437 1438 1438 1439 1439 1439 1440 1440 1441
1446 1447 1445 1444 1439 1439 1437 1434 1435 1435 1435 1433 1430 1426 1420 1421 1422 1423 1424 1425 1425 1426 1427 1428 1429 1429 1430 1430 1431 1431 1432 1432 1433 1433 1433 1434 1434 1434 1435 1435 1435 1436 1436 1436
1444 1446 1447 1442 1438 1439 1437 1426 1427 1427 1424 1426 1426 1420 1417 1419 1420 1420 1420 1421 1422 1423 1424 1424 1425 1426 1426 1427 1427 1427 1428 1429 1429 1429 1430 1430 1430 1431 1431 1431 1431 1432 1432 1432
1441 1444 1445 1443 1442 1443 1420 1414 1415 1418 1418 1418 1416 1415 1415 1416 1416 1417 1417 1417 1418 1419 1420 1421 1421 1422 1423 1423 1424 1424 1425 1425 1426 1426 1426 1427 1427 1427 1427 1427 1427 1428 1428 1428
1436 1440 1442 1442 1438 1427 1415 1412 1413 1416 1414 1411 1412 1412 1412 1413 1414 1413 1413 1414 1415 1415 1416 1417 1418 1418 1419 1419 1420 1420 1421 1422 1422 1422 1423 1423 1423 1423 1423 1423 1423 1424 1424 1423
1435 1437 1441 1438 1436 1429 1413 1410 1408 1412 1413 1406 1407 1408 1409 1411 1414 1412 1411 1411 1412 1412 1413 1413 1414 1414 1415 1416 1416 1416 1417 1418 1418 1419 1419 1420 1420 1420 1420 1420 1420 1420 1420 1419
1436 1437 1438 1436 1433 1420 1410 1408 1409 1417 1411 1403 1402 1403 1405 1407 1408 1408 1408 1408 1408 1409 1409 1410 1410 1410 1411 1412 1412 1412 1413 1414 1415 1415 1416 1416 1416 1416 1416 1416 1416 1416 1416 1416
1427 1430 1431 1430 1429 1419 1407 1408 1410 1407 1402 1401 1401 1401 1402 1403 1403 1404 1404 1404 1405 1405 1406 1406 1406 1407 1407 1408 1408 1409 1409 1410 1411 1412 1412 1412 1413 1413 1413 1413 1413 1413 1413 1412
1417 1417 1417 1417 1413 1405 1403 1402 1401 1401 1401 1400 1399 1400 1400 1400 1401 1401 1401 1401 1402 1402 1402 1403 1403 1403 1404 1404 1405 1405 1406 1407 1407 1408 1408 1408 1409 1409 1409 1409 1409 1409 1409 1409
1409 1408 1410 1409 1403 1401 1400 1399 1399 1399 1399 1398 1398 1398 1398 1398 1398 1398 1398 1398 1398 1398 1399 1399 1399 1399 1400 1401 1401 1401 1402 1403 1403 1404 1404 1405 1405 1405 1405 1406 1406 1406 1405 1405
1403 1405 1406 1405 1400 1398 1396 1396 1396 1396 1395 1395 1395 1395 1395 1395 1395 1395 1395 1395 1395 1395 1395 1396 1396 1396 1396 1397 1397 1398 1399 1399 1400 1400 1401 1401 1401 1402 1402 1402 1402 1402 1402 1402
1397 1399 1401 1398 1394 1395 1392 1392 1393 1392 1391 1391 1391 1391 1391 1391 1391 1391 1390 1391 1391 1391 1392 1392 1392 1392 1392 1393 1393 1394 1395 1396 1396 1396 1397 1397 1398 1398 1399 1398 1399 1399 1399 1399